GBNOM EGNE-EGCC

Flight info

Callsign GBNOM
Flight time 0h 39m
Altitude 3000
Route EGNE/BUXTONVRP/EGCC
Aircraft PA28/L-VGDW/C

Departure

Time 2026-05-04 16:04
Airport Retford Gamston Airport (EGNE)

Arrival

Time 2026-05-04 16:43
Airport Manchester Airport (EGCC)
Time Latitude Longitude Altitude Speed Heading
2026-05-04 15:57 53.27979 -0.94988 82 ft 0 kts 114°
2026-05-04 16:02 53.27954 -0.95029 84 ft 9 kts 237°
2026-05-04 16:02 53.27920 -0.95112 86 ft 9 kts 283°
2026-05-04 16:02 53.27922 -0.95122 82 ft 0 kts 298°
2026-05-04 16:03 53.27928 -0.95139 85 ft 10 kts 300°
2026-05-04 16:03 53.27995 -0.95189 83 ft 21 kts 25°
2026-05-04 16:03 53.28308 -0.94944 80 ft 75 kts 25°
2026-05-04 16:03 53.28860 -0.94521 200 ft 92 kts 25°
2026-05-04 16:04 53.29400 -0.94108 541 ft 80 kts 24°
2026-05-04 16:04 53.30241 -0.94897 1061 ft 83 kts 295°
2026-05-04 16:04 53.30456 -0.95798 1312 ft 85 kts 290°
2026-05-04 16:05 53.30650 -0.96729 1574 ft 84 kts 287°
2026-05-04 16:05 53.30812 -0.97678 1818 ft 83 kts 284°
2026-05-04 16:05 53.31064 -0.99540 2279 ft 84 kts 281°
2026-05-04 16:06 53.31206 -1.00522 2441 ft 91 kts 289°
2026-05-04 16:06 53.31614 -1.03456 2882 ft 98 kts 275°
2026-05-04 16:07 53.31552 -1.05055 3037 ft 104 kts 256°
2026-05-04 16:07 53.30239 -1.08162 3084 ft 106 kts 234°
2026-05-04 16:08 53.29818 -1.09173 3042 ft 105 kts 238°
2026-05-04 16:08 53.28756 -1.12276 2980 ft 98 kts 248°
2026-05-04 16:09 53.28346 -1.14458 2902 ft 102 kts 255°
2026-05-04 16:09 53.27941 -1.16705 3013 ft 101 kts 256°
2026-05-04 16:10 53.27671 -1.19005 3085 ft 105 kts 256°
2026-05-04 16:11 53.27005 -1.22568 2991 ft 109 kts 256°
2026-05-04 16:11 53.26833 -1.23775 3044 ft 102 kts 258°
2026-05-04 16:12 53.26289 -1.27263 3005 ft 106 kts 257°
2026-05-04 16:12 53.26054 -1.30838 3034 ft 103 kts 274°
2026-05-04 16:13 53.25995 -1.33228 3056 ft 103 kts 264°
2026-05-04 16:13 53.25869 -1.35608 3063 ft 103 kts 267°
2026-05-04 16:14 53.25921 -1.37996 3079 ft 103 kts 277°
2026-05-04 16:14 53.25955 -1.40373 3088 ft 104 kts 268°
2026-05-04 16:15 53.25797 -1.43973 3094 ft 104 kts 267°
2026-05-04 16:16 53.25705 -1.46404 3105 ft 103 kts 270°
2026-05-04 16:16 53.25323 -1.49956 3095 ft 105 kts 250°
2026-05-04 16:17 53.25025 -1.52322 3093 ft 104 kts 266°
2026-05-04 16:18 53.25040 -1.55957 3106 ft 103 kts 272°
2026-05-04 16:18 53.25086 -1.57135 3122 ft 103 kts 277°
2026-05-04 16:19 53.25016 -1.60788 3090 ft 108 kts 265°
2026-05-04 16:19 53.24963 -1.63226 3138 ft 105 kts 270°
2026-05-04 16:20 53.24948 -1.67028 3051 ft 113 kts 270°
2026-05-04 16:20 53.24927 -1.69645 2939 ft 113 kts 270°
2026-05-04 16:21 53.24866 -1.73377 2996 ft 107 kts 272°
2026-05-04 16:22 53.24774 -1.75859 3022 ft 107 kts 269°
2026-05-04 16:22 53.23801 -1.78781 3103 ft 110 kts 186°
2026-05-04 16:23 53.22415 -1.76223 3147 ft 111 kts 108°
2026-05-04 16:24 53.23423 -1.72769 2995 ft 104 kts 347°
2026-05-04 16:25 53.24085 -1.74676 2985 ft 108 kts 276°
2026-05-04 16:26 53.24008 -1.79667 3002 ft 106 kts 271°
2026-05-04 16:26 53.24395 -1.83282 3061 ft 106 kts 287°
2026-05-04 16:27 53.24739 -1.85655 3099 ft 105 kts 285°
2026-05-04 16:28 53.25284 -1.89251 3124 ft 105 kts 288°
2026-05-04 16:28 53.25975 -1.92935 3023 ft 107 kts 289°
2026-05-04 16:29 53.27225 -1.97539 2942 ft 106 kts 309°
2026-05-04 16:30 53.29171 -1.97666 3061 ft 106 kts 48°
2026-05-04 16:31 53.29176 -1.95268 3051 ft 119 kts 127°
2026-05-04 16:31 53.27072 -1.95956 2993 ft 123 kts 243°
2026-05-04 16:32 53.28107 -1.98849 3076 ft 109 kts 352°
2026-05-04 16:33 53.29337 -1.97769 3143 ft 109 kts 70°
2026-05-04 16:33 53.28725 -1.95613 3287 ft 111 kts 143°
2026-05-04 16:34 53.27267 -1.95741 2653 ft 102 kts 216°
2026-05-04 16:34 53.26797 -1.96640 2399 ft 112 kts 249°
2026-05-04 16:35 53.27041 -2.00182 2421 ft 120 kts 240°
2026-05-04 16:35 53.25798 -2.04146 2092 ft 121 kts 246°
2026-05-04 16:36 53.25430 -2.05408 1875 ft 122 kts 245°
2026-05-04 16:36 53.24616 -2.08129 1573 ft 137 kts 246°
2026-05-04 16:37 53.23967 -2.10878 1295 ft 123 kts 255°
2026-05-04 16:37 53.23807 -2.12265 1350 ft 120 kts 266°
2026-05-04 16:37 53.24310 -2.14809 1416 ft 118 kts 312°
2026-05-04 16:38 53.25545 -2.16574 1420 ft 121 kts 327°
2026-05-04 16:39 53.27648 -2.18730 1530 ft 110 kts 333°
2026-05-04 16:39 53.28947 -2.19931 1823 ft 101 kts 336°
2026-05-04 16:40 53.30519 -2.20900 1525 ft 125 kts 349°
2026-05-04 16:40 53.32210 -2.21445 1409 ft 119 kts 353°
2026-05-04 16:41 53.33840 -2.21947 1440 ft 120 kts 350°
2026-05-04 16:41 53.36067 -2.23263 1296 ft 93 kts 323°
2026-05-04 16:42 53.36333 -2.25463 459 ft 76 kts 239°
2026-05-04 16:43 53.35649 -2.26930 242 ft 71 kts 229°
2026-05-04 16:43 53.35270 -2.27713 231 ft 28 kts 231°
2026-05-04 16:43 53.35249 -2.27930 228 ft 24 kts 265°
2026-05-04 16:44 53.35231 -2.28168 225 ft 0 kts 268°
2026-05-04 16:45 53.35231 -2.28171 225 ft 0 kts 268°
2026-05-04 16:46 53.35524 -2.28147 229 ft 7 kts 276°
2026-05-04 16:46 53.35541 -2.28199 229 ft 0 kts 22°